#Datum;Uhrzeit;WR;Pac;DaySum;Status;WR;Pac;DaySum;Status;Pdc1;Udc;Temp;WR;Pac;DaySum;Status;Pdc1;Udc;Temp;WR;Pac;DaySum;Status;Pdc1;Udc;Temp;WR;Pac;DaySum;Status;Pdc1;Pdc2;Udc1;Udc2;Temp;WR;Pac;DaySum;Status;Pdc1;Pdc2;Udc1;Udc2;Temp;WR;Pac;DaySum;Status;Pdc1;Udc;Temp;WR;Pac;DaySum;Status;Pdc1;Udc;Temp;WR;Pac;DaySum;Status;Pdc1;Udc;Temp
05.01.21;23:55:00;1;1003;16866;0;2;0;1788;0;0;0;0;3;0;1045;0;0;0;0;4;0;1456;0;0;0;0;5;0;0;0;0;0;0;0;0;6;0;2443;0;0;0;0;0;0;7;0;1832;0;0;0;0;8;0;1849;0;0;0;0;9;0;948;0;0;0;0
05.01.21;23:50:00;1;553;16785;0;2;0;1788;0;0;0;0;3;0;1045;0;0;0;0;4;0;1456;0;0;0;0;5;0;0;0;0;0;0;0;0;6;0;2443;0;0;0;0;0;0;7;0;1832;0;0;0;0;8;0;1849;0;0;0;0;9;0;948;0;0;0;0
05.01.21;23:45:00;1;597;16739;0;2;0;1788;0;0;0;0;3;0;1045;0;0;0;0;4;0;1456;0;0;0;0;5;0;0;0;0;0;0;0;0;6;0;2443;0;0;0;0;0;0;7;0;1832;0;0;0;0;8;0;1849;0;0;0;0;9;0;948;0;0;0;0
05.01.21;23:40:00;1;629;16690;0;2;0;1788;0;0;0;0;3;0;1045;0;0;0;0;4;0;1456;0;0;0;0;5;0;0;0;0;0;0;0;0;6;0;2443;0;0;0;0;0;0;7;0;1832;0;0;0;0;8;0;1849;0;0;0;0;9;0;948;0;0;0;0
05.01.21;23:35:00;1;687;16638;0;2;0;1788;0;0;0;0;3;0;1045;0;0;0;0;4;0;1456;0;0;0;0;5;0;0;0;0;0;0;0;0;6;0;2443;0;0;0;0;0;0;7;0;1832;0;0;0;0;8;0;1849;0;0;0;0;9;0;948;0;0;0;0
05.01.21;23:30:00;1;628;16581;0;2;0;1788;0;0;0;0;3;0;1045;0;0;0;0;4;0;1456;0;0;0;0;5;0;0;0;0;0;0;0;0;6;0;2443;0;0;0;0;0;0;7;0;1832;0;0;0;0;8;0;1849;0;0;0;0;9;0;948;0;0;0;0
05.01.21;23:25:00;1;594;16528;0;2;0;1788;0;0;0;0;3;0;1045;0;0;0;0;4;0;1456;0;0;0;0;5;0;0;0;0;0;0;0;0;6;0;2443;0;0;0;0;0;0;7;0;1832;0;0;0;0;8;0;1849;0;0;0;0;9;0;948;0;0;0;0
05.01.21;23:20:00;1;569;16479;0;2;0;1788;0;0;0;0;3;0;1045;0;0;0;0;4;0;1456;0;0;0;0;5;0;0;0;0;0;0;0;0;6;0;2443;0;0;0;0;0;0;7;0;1832;0;0;0;0;8;0;1849;0;0;0;0;9;0;948;0;0;0;0
05.01.21;23:15:00;1;591;16431;0;2;0;1788;0;0;0;0;3;0;1045;0;0;0;0;4;0;1456;0;0;0;0;5;0;0;0;0;0;0;0;0;6;0;2443;0;0;0;0;0;0;7;0;1832;0;0;0;0;8;0;1849;0;0;0;0;9;0;948;0;0;0;0
05.01.21;23:10:00;1;610;16381;0;2;0;1788;0;0;0;0;3;0;1045;0;0;0;0;4;0;1456;0;0;0;0;5;0;0;0;0;0;0;0;0;6;0;2443;0;0;0;0;0;0;7;0;1832;0;0;0;0;8;0;1849;0;0;0;0;9;0;948;0;0;0;0
05.01.21;23:05:00;1;666;16330;0;2;0;1788;0;0;0;0;3;0;1045;0;0;0;0;4;0;1456;0;0;0;0;5;0;0;0;0;0;0;0;0;6;0;2443;0;0;0;0;0;0;7;0;1832;0;0;0;0;8;0;1849;0;0;0;0;9;0;948;0;0;0;0
05.01.21;23:00:00;1;583;16274;0;2;0;1788;0;0;0;0;3;0;1045;0;0;0;0;4;0;1456;0;0;0;0;5;0;0;0;0;0;0;0;0;6;0;2443;0;0;0;0;0;0;7;0;1832;0;0;0;0;8;0;1849;0;0;0;0;9;0;948;0;0;0;0
05.01.21;22:55:00;1;548;16225;0;2;0;1788;0;0;0;0;3;0;1045;0;0;0;0;4;0;1456;0;0;0;0;5;0;0;0;0;0;0;0;0;6;0;2443;2;0;0;0;0;0;7;0;1832;0;0;0;0;8;0;1849;0;0;0;0;9;0;948;0;0;0;0
05.01.21;22:50:00;1;535;16180;0;2;0;1788;0;0;0;0;3;0;1045;0;0;0;0;4;0;1456;0;0;0;0;5;0;0;0;0;0;0;0;0;6;0;2443;2;0;0;0;0;0;7;0;1832;0;0;0;0;8;0;1849;0;0;0;0;9;0;948;0;0;0;0
05.01.21;22:45:00;1;530;16135;0;2;0;1788;0;0;0;0;3;0;1045;0;0;0;0;4;0;1456;0;0;0;0;5;0;0;0;0;0;0;0;0;6;0;2443;2;0;0;0;0;0;7;0;1832;0;0;0;0;8;0;1849;0;0;0;0;9;0;948;0;0;0;0
05.01.21;22:40:00;1;577;16090;0;2;0;1788;0;0;0;0;3;0;1045;0;0;0;0;4;0;1456;0;0;0;0;5;0;0;0;0;0;0;0;0;6;0;2443;2;0;0;0;0;0;7;0;1832;0;0;0;0;8;0;1849;0;0;0;0;9;0;948;0;0;0;0
05.01.21;22:35:00;1;674;16043;0;2;0;1788;0;0;0;0;3;0;1045;0;0;0;0;4;0;1456;0;0;0;0;5;0;0;0;0;0;0;0;0;6;0;2443;2;0;0;0;0;0;7;0;1832;0;0;0;0;8;0;1849;0;0;0;0;9;0;948;0;0;0;0
05.01.21;22:30:00;1;771;15985;0;2;0;1788;0;0;0;0;3;0;1045;0;0;0;0;4;0;1456;0;0;0;0;5;0;0;0;0;0;0;0;0;6;0;2443;2;0;0;0;0;0;7;0;1832;0;0;0;0;8;0;1849;0;0;0;0;9;0;948;0;0;0;0
05.01.21;22:25:00;1;574;15904;0;2;0;1788;0;0;0;0;3;0;1045;0;0;0;0;4;0;1456;0;0;0;0;5;0;0;0;0;0;0;0;0;6;0;2443;2;0;0;0;0;0;7;0;1832;0;0;0;0;8;0;1849;0;0;0;0;9;0;948;0;0;0;0
05.01.21;22:20:00;1;638;15857;0;2;0;1788;0;0;0;0;3;0;1045;0;0;0;0;4;0;1456;0;0;0;0;5;0;0;0;0;0;0;0;0;6;0;2443;2;0;0;0;0;0;7;0;1832;0;0;0;0;8;0;1849;0;0;0;0;9;0;948;0;0;0;0
05.01.21;22:15:00;1;651;15804;0;2;0;1788;0;0;0;0;3;0;1045;0;0;0;0;4;0;1456;0;0;0;0;5;0;0;0;0;0;0;0;0;6;0;2443;2;0;0;0;0;0;7;0;1832;0;0;0;0;8;0;1849;0;0;0;0;9;0;948;0;0;0;0
05.01.21;22:10:00;1;741;15750;0;2;0;1788;0;0;0;0;3;0;1045;0;0;0;0;4;0;1456;0;0;0;0;5;0;0;0;0;0;0;0;0;6;0;2443;2;0;0;0;0;0;7;0;1832;0;0;0;0;8;0;1849;0;0;0;0;9;0;948;0;0;0;0
05.01.21;22:05:00;1;662;15688;0;2;0;1788;0;0;0;0;3;0;1045;0;0;0;0;4;0;1456;0;0;0;0;5;0;0;0;0;0;0;0;0;6;0;2443;2;0;0;0;0;0;7;0;1832;0;0;0;0;8;0;1849;0;0;0;0;9;0;948;0;0;0;0
05.01.21;22:00:00;1;725;15632;0;2;0;1788;0;0;0;0;3;0;1045;0;0;0;0;4;0;1456;0;0;0;0;5;0;0;0;0;0;0;0;0;6;0;2443;2;0;0;0;0;0;7;0;1832;0;0;0;0;8;0;1849;0;0;0;0;9;0;948;0;0;0;0
05.01.21;21:55:00;1;730;15572;0;2;0;1788;0;0;0;0;3;0;1045;0;0;0;0;4;0;1456;0;0;0;0;5;0;0;0;0;0;0;0;0;6;0;2443;2;0;0;0;0;0;7;0;1832;0;0;0;0;8;0;1849;0;0;0;0;9;0;948;0;0;0;0
05.01.21;21:50:00;1;790;15511;0;2;0;1788;0;0;0;0;3;0;1045;0;0;0;0;4;0;1456;0;0;0;0;5;0;0;0;0;0;0;0;0;6;0;2443;2;0;0;0;0;0;7;0;1832;0;0;0;0;8;0;1849;0;0;0;0;9;0;948;0;0;0;0
05.01.21;21:45:00;1;805;15445;0;2;0;1788;0;0;0;0;3;0;1045;0;0;0;0;4;0;1456;0;0;0;0;5;0;0;0;0;0;0;0;0;6;0;2443;2;0;0;0;0;0;7;0;1832;0;0;0;0;8;0;1849;0;0;0;0;9;0;948;0;0;0;0
05.01.21;21:40:00;1;853;15379;0;2;0;1788;0;0;0;0;3;0;1045;0;0;0;0;4;0;1456;0;0;0;0;5;0;0;0;0;0;0;0;0;6;0;2443;2;0;0;0;0;0;7;0;1832;0;0;0;0;8;0;1849;0;0;0;0;9;0;948;0;0;0;0
05.01.21;21:35:00;1;786;15309;0;2;0;1788;0;0;0;0;3;0;1045;0;0;0;0;4;0;1456;0;0;0;0;5;0;0;0;0;0;0;0;0;6;0;2443;2;0;0;0;0;0;7;0;1832;0;0;0;0;8;0;1849;0;0;0;0;9;0;948;0;0;0;0
05.01.21;21:30:00;1;862;15243;0;2;0;1788;0;0;0;0;3;0;1045;0;0;0;0;4;0;1456;0;0;0;0;5;0;0;0;0;0;0;0;0;6;0;2443;2;0;0;0;0;0;7;0;1832;0;0;0;0;8;0;1849;0;0;0;0;9;0;948;0;0;0;0
05.01.21;21:25:00;1;851;15171;0;2;0;1788;0;0;0;0;3;0;1045;0;0;0;0;4;0;1456;0;0;0;0;5;0;0;0;0;0;0;0;0;6;0;2443;2;0;0;0;0;0;7;0;1832;0;0;0;0;8;0;1849;0;0;0;0;9;0;948;0;0;0;0
05.01.21;21:20:00;1;838;15099;0;2;0;1788;0;0;0;0;3;0;1045;0;0;0;0;4;0;1456;0;0;0;0;5;0;0;0;0;0;0;0;0;6;0;2443;2;0;0;0;0;0;7;0;1832;0;0;0;0;8;0;1849;0;0;0;0;9;0;948;0;0;0;0
05.01.21;21:15:00;1;1264;15029;0;2;0;1788;0;0;0;0;3;0;1045;0;0;0;0;4;0;1456;0;0;0;0;5;0;0;0;0;0;0;0;0;6;0;2443;2;0;0;0;0;0;7;0;1832;0;0;0;0;8;0;1849;0;0;0;0;9;0;948;0;0;0;0
05.01.21;21:10:00;1;903;14925;0;2;0;1788;0;0;0;0;3;0;1045;0;0;0;0;4;0;1456;0;0;0;0;5;0;0;0;0;0;0;0;0;6;0;2443;2;0;0;0;0;0;7;0;1832;0;0;0;0;8;0;1849;0;0;0;0;9;0;948;0;0;0;0
05.01.21;21:05:00;1;803;14851;0;2;0;1788;0;0;0;0;3;0;1045;0;0;0;0;4;0;1456;0;0;0;0;5;0;0;0;0;0;0;0;0;6;0;2443;2;0;0;0;0;0;7;0;1832;0;0;0;0;8;0;1849;0;0;0;0;9;0;948;0;0;0;0
05.01.21;21:00:00;1;791;14783;0;2;0;1788;0;0;0;0;3;0;1045;0;0;0;0;4;0;1456;0;0;0;0;5;0;0;0;0;0;0;0;0;6;0;2443;2;0;0;0;0;0;7;0;1832;0;0;0;0;8;0;1849;0;0;0;0;9;0;948;0;0;0;0
05.01.21;20:55:00;1;765;14717;0;2;0;1788;0;0;0;0;3;0;1045;0;0;0;0;4;0;1456;0;0;0;0;5;0;0;0;0;0;0;0;0;6;0;2443;2;0;0;0;0;0;7;0;1832;0;0;0;0;8;0;1849;0;0;0;0;9;0;948;0;0;0;0
05.01.21;20:50:00;1;795;14652;0;2;0;1788;0;0;0;0;3;0;1045;0;0;0;0;4;0;1456;0;0;0;0;5;0;0;0;0;0;0;0;0;6;0;2443;2;0;0;0;0;0;7;0;1832;0;0;0;0;8;0;1849;0;0;0;0;9;0;948;0;0;0;0
05.01.21;20:45:00;1;810;14586;0;2;0;1788;0;0;0;0;3;0;1045;0;0;0;0;4;0;1456;0;0;0;0;5;0;0;0;0;0;0;0;0;6;0;2443;2;0;0;0;0;0;7;0;1832;0;0;0;0;8;0;1849;0;0;0;0;9;0;948;0;0;0;0
05.01.21;20:40:00;1;815;14519;0;2;0;1788;0;0;0;0;3;0;1045;0;0;0;0;4;0;1456;0;0;0;0;5;0;0;0;0;0;0;0;0;6;0;2443;2;0;0;0;0;0;7;0;1832;0;0;0;0;8;0;1849;0;0;0;0;9;0;948;0;0;0;0
05.01.21;20:35:00;1;821;14449;0;2;0;1788;0;0;0;0;3;0;1045;0;0;0;0;4;0;1456;0;0;0;0;5;0;0;0;0;0;0;0;0;6;0;2443;2;0;0;0;0;0;7;0;1832;0;0;0;0;8;0;1849;0;0;0;0;9;0;948;0;0;0;0
05.01.21;20:30:00;1;821;14381;0;2;0;1788;0;0;0;0;3;0;1045;0;0;0;0;4;0;1456;0;0;0;0;5;0;0;0;0;0;0;0;0;6;0;2443;2;0;0;0;0;0;7;0;1832;0;0;0;0;8;0;1849;0;0;0;0;9;0;948;0;0;0;0
05.01.21;20:25:00;1;813;14312;0;2;0;1788;0;0;0;0;3;0;1045;0;0;0;0;4;0;1456;0;0;0;0;5;0;0;0;0;0;0;0;0;6;0;2443;2;0;0;0;0;0;7;0;1832;0;0;0;0;8;0;1849;0;0;0;0;9;0;948;0;0;0;0
05.01.21;20:20:00;1;788;14245;0;2;0;1788;0;0;0;0;3;0;1045;0;0;0;0;4;0;1456;0;0;0;0;5;0;0;0;0;0;0;0;0;6;0;2443;2;0;0;0;0;0;7;0;1832;0;0;0;0;8;0;1849;0;0;0;0;9;0;948;0;0;0;0
05.01.21;20:15:00;1;752;14179;0;2;0;1788;0;0;0;0;3;0;1045;0;0;0;0;4;0;1456;0;0;0;0;5;0;0;0;0;0;0;0;0;6;0;2443;2;0;0;0;0;0;7;0;1832;0;0;0;0;8;0;1849;0;0;0;0;9;0;948;0;0;0;0
05.01.21;20:10:00;1;744;14116;0;2;0;1788;0;0;0;0;3;0;1045;0;0;0;0;4;0;1456;0;0;0;0;5;0;0;0;0;0;0;0;0;6;0;2443;2;0;0;0;0;0;7;0;1832;0;0;0;0;8;0;1849;0;0;0;0;9;0;948;0;0;0;0
05.01.21;20:05:00;1;777;14054;0;2;0;1788;0;0;0;0;3;0;1045;0;0;0;0;4;0;1456;0;0;0;0;5;0;0;0;0;0;0;0;0;6;0;2443;2;0;0;0;0;0;7;0;1832;0;0;0;0;8;0;1849;0;0;0;0;9;0;948;0;0;0;0
05.01.21;20:00:00;1;740;13988;0;2;0;1788;0;0;0;0;3;0;1045;0;0;0;0;4;0;1456;0;0;0;0;5;0;0;0;0;0;0;0;0;6;0;2443;2;0;0;0;0;0;7;0;1832;0;0;0;0;8;0;1849;0;0;0;0;9;0;948;0;0;0;0
05.01.21;19:55:00;1;1142;13926;0;2;0;1788;0;0;0;0;3;0;1045;0;0;0;0;4;0;1456;0;0;0;0;5;0;0;0;0;0;0;0;0;6;0;2443;2;0;0;0;0;0;7;0;1832;0;0;0;0;8;0;1849;0;0;0;0;9;0;948;0;0;0;0
05.01.21;19:50:00;1;687;13834;0;2;0;1788;0;0;0;0;3;0;1045;0;0;0;0;4;0;1456;0;0;0;0;5;0;0;0;0;0;0;0;0;6;0;2443;2;0;0;0;0;0;7;0;1832;0;0;0;0;8;0;1849;0;0;0;0;9;0;948;0;0;0;0
05.01.21;19:45:00;1;765;13777;0;2;0;1788;0;0;0;0;3;0;1045;0;0;0;0;4;0;1456;0;0;0;0;5;0;0;0;0;0;0;0;0;6;0;2443;2;0;0;0;0;0;7;0;1832;0;0;0;0;8;0;1849;0;0;0;0;9;0;948;0;0;0;0
05.01.21;19:40:00;1;746;13713;0;2;0;1788;0;0;0;0;3;0;1045;0;0;0;0;4;0;1456;0;0;0;0;5;0;0;0;0;0;0;0;0;6;0;2443;2;0;0;0;0;0;7;0;1832;0;0;0;0;8;0;1849;0;0;0;0;9;0;948;0;0;0;0
05.01.21;19:35:00;1;759;13651;0;2;0;1788;0;0;0;0;3;0;1045;0;0;0;0;4;0;1456;0;0;0;0;5;0;0;0;0;0;0;0;0;6;0;2443;0;0;0;0;0;0;7;0;1832;0;0;0;0;8;0;1849;0;0;0;0;9;0;948;0;0;0;0
05.01.21;19:30:00;1;730;13589;0;2;0;1788;0;0;0;0;3;0;1045;0;0;0;0;4;0;1456;0;0;0;0;5;0;0;0;0;0;0;0;0;6;0;2443;2;0;0;0;0;0;7;0;1832;0;0;0;0;8;0;1849;0;0;0;0;9;0;948;0;0;0;0
05.01.21;19:25:00;1;608;13528;0;2;0;1788;0;0;0;0;3;0;1045;0;0;0;0;4;0;1456;0;0;0;0;5;0;0;0;0;0;0;0;0;6;0;2443;2;0;0;0;0;0;7;0;1832;0;0;0;0;8;0;1849;0;0;0;0;9;0;948;0;0;0;0
05.01.21;19:20:00;1;613;13476;0;2;0;1788;0;0;0;0;3;0;1045;0;0;0;0;4;0;1456;0;0;0;0;5;0;0;0;0;0;0;0;0;6;0;2443;2;0;0;0;0;0;7;0;1832;0;0;0;0;8;0;1849;0;0;0;0;9;0;948;0;0;0;0
05.01.21;19:15:00;1;645;13425;0;2;0;1788;0;0;0;0;3;0;1045;0;0;0;0;4;0;1456;0;0;0;0;5;0;0;0;0;0;0;0;0;6;0;2443;2;0;0;0;0;0;7;0;1832;0;0;0;0;8;0;1849;0;0;0;0;9;0;948;0;0;0;0
05.01.21;19:10:00;1;607;13372;0;2;0;1788;0;0;0;0;3;0;1045;0;0;0;0;4;0;1456;0;0;0;0;5;0;0;0;0;0;0;0;0;6;0;2443;2;0;0;0;0;0;7;0;1832;0;0;0;0;8;0;1849;0;0;0;0;9;0;948;0;0;0;0
05.01.21;19:05:00;1;586;13321;0;2;0;1788;0;0;0;0;3;0;1045;0;0;0;0;4;0;1456;0;0;0;0;5;0;0;0;0;0;0;0;0;6;0;2443;2;0;0;0;0;0;7;0;1832;0;0;0;0;8;0;1849;0;0;0;0;9;0;948;0;0;0;0
05.01.21;19:00:00;1;1304;13272;0;2;0;1788;0;0;0;0;3;0;1045;0;0;0;0;4;0;1456;0;0;0;0;5;0;0;0;0;0;0;0;0;6;0;2443;2;0;0;0;0;0;7;0;1832;0;0;0;0;8;0;1849;0;0;0;0;9;0;948;0;0;0;0
05.01.21;18:55:00;1;2576;13167;0;2;0;1788;0;0;0;0;3;0;1045;0;0;0;0;4;0;1456;0;0;0;0;5;0;0;0;0;0;0;0;0;6;0;2443;2;0;0;0;0;0;7;0;1832;0;0;0;0;8;0;1849;0;0;0;0;9;0;948;0;0;0;0
05.01.21;18:50:00;1;2631;12954;0;2;0;1788;0;0;0;0;3;0;1045;0;0;0;0;4;0;1456;0;0;0;0;5;0;0;0;0;0;0;0;0;6;0;2443;2;0;0;0;0;0;7;0;1832;0;0;0;0;8;0;1849;0;0;0;0;9;0;948;0;0;0;0
05.01.21;18:45:00;1;2621;12735;0;2;0;1788;0;0;0;0;3;0;1045;0;0;0;0;4;0;1456;0;0;0;0;5;0;0;0;0;0;0;0;0;6;0;2443;2;0;0;0;0;0;7;0;1832;0;0;0;0;8;0;1849;0;0;0;0;9;0;948;0;0;0;0
05.01.21;18:40:00;1;2528;12514;0;2;0;1788;0;0;0;0;3;0;1045;0;0;0;0;4;0;1456;0;0;0;0;5;0;0;0;0;0;0;0;0;6;0;2443;2;0;0;0;0;0;7;0;1832;0;0;0;0;8;0;1849;0;0;0;0;9;0;948;0;0;0;0
05.01.21;18:35:00;1;740;12328;0;2;0;1788;0;0;0;0;3;0;1045;0;0;0;0;4;0;1456;0;0;0;0;5;0;0;0;0;0;0;0;0;6;0;2443;2;0;0;0;0;0;7;0;1832;0;0;0;0;8;0;1849;0;0;0;0;9;0;948;0;0;0;0
05.01.21;18:30:00;1;739;12265;0;2;0;1788;0;0;0;0;3;0;1045;0;0;0;0;4;0;1456;0;0;0;0;5;0;0;0;0;0;0;0;0;6;0;2443;2;0;0;0;0;0;7;0;1832;0;0;0;0;8;0;1849;0;0;0;0;9;0;948;0;0;0;0
05.01.21;18:25:00;1;719;12204;0;2;0;1788;0;0;0;0;3;0;1045;0;0;0;0;4;0;1456;0;0;0;0;5;0;0;0;0;0;0;0;0;6;0;2443;2;0;0;0;0;0;7;0;1832;0;0;0;0;8;0;1849;0;0;0;0;9;0;948;0;0;0;0
05.01.21;18:20:00;1;817;12144;0;2;0;1788;0;0;0;0;3;0;1045;0;0;0;0;4;0;1456;0;0;0;0;5;0;0;0;0;0;0;0;0;6;0;2443;2;0;0;0;0;0;7;0;1832;0;0;0;0;8;0;1849;0;0;0;0;9;0;948;0;0;0;0
05.01.21;18:15:00;1;792;12077;0;2;0;1788;0;0;0;0;3;0;1045;0;0;0;0;4;0;1456;0;0;0;0;5;0;0;0;0;0;0;0;0;6;0;2443;2;0;0;0;0;0;7;0;1832;0;0;0;0;8;0;1849;0;0;0;0;9;0;948;0;0;0;0
05.01.21;18:10:00;1;775;12011;0;2;0;1788;0;0;0;0;3;0;1045;0;0;0;0;4;0;1456;0;0;0;0;5;0;0;0;0;0;0;0;0;6;0;2443;2;0;0;0;0;0;7;0;1832;0;0;0;0;8;0;1849;0;0;0;0;9;0;948;0;0;0;0
05.01.21;18:05:00;1;562;11945;0;2;0;1788;0;0;0;0;3;0;1045;0;0;0;0;4;0;1456;0;0;0;0;5;0;0;0;0;0;0;0;0;6;0;2443;2;0;0;0;0;0;7;0;1832;0;0;0;0;8;0;1849;0;0;0;0;9;0;948;0;0;0;0
05.01.21;18:00:00;1;2407;11829;0;2;0;1788;0;0;0;0;3;0;1045;0;0;0;0;4;0;1456;0;0;0;0;5;0;0;0;0;0;0;0;0;6;0;2443;2;0;0;0;0;0;7;0;1832;0;0;0;0;8;0;1849;0;0;0;0;9;0;948;0;0;0;0
05.01.21;17:55:00;1;2416;11628;0;2;0;1788;0;0;0;0;3;0;1045;0;0;0;0;4;0;1456;0;0;0;0;5;0;0;0;0;0;0;0;0;6;0;2443;2;0;0;0;0;0;7;0;1832;0;0;0;0;8;0;1849;0;0;0;0;9;0;948;0;0;0;0
05.01.21;17:50:00;1;1873;11427;0;2;0;1788;0;0;0;0;3;0;1045;0;0;0;0;4;0;1456;0;0;0;0;5;0;0;0;0;0;0;0;0;6;0;2443;2;0;0;0;0;0;7;0;1832;0;0;0;0;8;0;1849;0;0;0;0;9;0;948;0;0;0;0
05.01.21;17:45:00;1;502;11252;0;2;0;1788;0;0;0;0;3;0;1045;0;0;0;0;4;0;1456;0;0;0;0;5;0;0;0;0;0;0;0;0;6;0;2443;2;0;0;0;0;0;7;0;1832;0;0;0;0;8;0;1849;0;0;0;0;9;0;948;0;0;0;0
05.01.21;17:40:00;1;546;11211;0;2;0;1788;0;0;0;0;3;0;1045;0;0;0;0;4;0;1456;0;0;0;0;5;0;0;0;0;0;0;0;0;6;0;2443;2;0;0;0;0;0;7;0;1832;0;0;0;0;8;0;1849;0;0;0;0;9;0;948;0;0;0;0
05.01.21;17:35:00;1;507;11167;0;2;0;1788;0;0;0;0;3;0;1045;0;0;0;0;4;0;1456;0;0;0;0;5;0;0;0;0;0;0;0;0;6;0;2443;2;0;0;0;0;0;7;0;1832;0;0;0;0;8;0;1849;0;0;0;0;9;0;948;0;0;0;0
05.01.21;17:30:00;1;427;11124;0;2;0;1788;0;0;0;0;3;0;1045;0;0;0;0;4;0;1456;0;0;0;0;5;0;0;0;0;0;0;0;0;6;0;2443;2;0;0;0;0;0;7;0;1832;0;0;0;0;8;0;1849;0;0;0;0;9;0;948;0;0;0;0
05.01.21;17:25:00;1;502;11088;0;2;0;1788;0;0;0;0;3;0;1045;0;0;0;0;4;0;1456;0;0;0;0;5;0;0;0;0;0;0;0;0;6;0;2443;2;0;0;0;0;0;7;0;1832;0;0;0;0;8;0;1849;0;0;0;0;9;0;948;0;0;0;0
05.01.21;17:20:00;1;500;11046;0;2;0;1788;0;0;0;0;3;0;1045;0;0;0;0;4;0;1456;0;0;0;0;5;0;0;0;0;0;0;0;0;6;0;2443;2;0;0;0;0;0;7;0;1832;0;0;0;0;8;0;1849;0;0;0;0;9;0;948;0;0;0;0
05.01.21;17:15:00;1;462;11005;0;2;0;1788;0;0;0;0;3;0;1045;0;0;0;0;4;0;1456;0;0;0;0;5;0;0;0;0;0;0;0;0;6;0;2443;2;0;0;0;0;0;7;0;1832;0;0;0;0;8;0;1849;0;0;0;0;9;0;948;0;0;0;0
05.01.21;17:10:00;1;422;10966;0;2;0;1788;0;0;0;0;3;0;1045;0;0;0;0;4;0;1456;0;0;0;0;5;0;0;0;0;0;0;0;0;6;0;2443;2;0;0;0;0;0;7;0;1832;0;0;0;0;8;0;1849;0;0;0;0;9;0;948;0;0;0;0
05.01.21;17:05:00;1;434;10931;0;2;0;1788;0;0;0;0;3;0;1045;0;0;0;0;4;0;1456;0;0;0;0;5;0;0;0;0;0;0;0;0;6;0;2443;2;0;0;0;0;0;7;0;1832;0;0;0;0;8;0;1849;0;0;0;0;9;0;948;0;0;0;0
05.01.21;17:00:00;1;1582;10895;0;2;0;1788;0;0;0;0;3;0;1045;0;0;0;0;4;0;1456;0;0;0;0;5;0;0;0;0;0;0;0;0;6;0;2443;2;0;0;0;0;0;7;0;1832;0;0;0;0;8;0;1849;0;0;0;0;9;0;948;0;0;0;0
05.01.21;16:55:00;1;2988;10793;0;2;0;1788;0;0;0;0;3;0;1045;0;0;0;0;4;0;1456;0;0;0;0;5;0;0;0;0;0;0;0;0;6;0;2443;2;0;0;0;0;0;7;0;1832;0;0;0;0;8;0;1849;0;0;0;0;9;0;948;0;0;0;0
05.01.21;16:50:00;1;2361;10583;0;2;0;1788;0;0;0;0;3;0;1045;0;0;0;0;4;0;1456;0;0;0;0;5;0;0;0;0;0;0;0;0;6;0;2443;2;0;0;0;0;0;7;0;1832;0;0;0;0;8;0;1849;0;0;0;0;9;0;948;0;0;0;0
05.01.21;16:45:00;1;2499;10377;0;2;0;1788;0;0;0;0;3;0;1045;0;0;0;0;4;0;1456;0;0;0;0;5;0;0;0;0;0;0;0;0;6;0;2443;2;0;0;0;0;0;7;0;1832;0;0;0;0;8;0;1849;0;0;0;0;9;0;948;0;0;0;0
05.01.21;16:40:00;1;3147;10195;0;2;0;1788;0;0;0;0;3;0;1045;0;0;0;0;4;0;1456;0;0;0;0;5;0;0;0;0;0;0;0;0;6;0;2443;2;0;0;0;0;0;7;0;1832;0;0;0;0;8;0;1849;0;0;0;0;9;0;948;0;0;0;0
05.01.21;16:35:00;1;3285;9911;0;2;0;1788;0;0;0;0;3;0;1045;0;0;0;0;4;0;1456;0;0;0;0;5;0;0;0;0;0;0;0;0;6;0;2443;2;0;0;0;0;0;7;0;1832;0;0;0;0;8;0;1849;0;0;0;0;9;0;948;0;0;0;0
05.01.21;16:30:00;1;403;9619;0;2;0;1788;0;0;196;5;3;0;1045;2;0;278;10;4;0;1456;0;0;0;0;5;0;0;0;0;0;0;0;0;6;0;2443;2;0;0;0;0;0;7;0;1832;0;0;0;0;8;0;1849;0;0;0;0;9;0;948;0;0;0;0
05.01.21;16:25:00;1;476;9586;0;2;0;1788;6;0;289;7;3;0;1045;6;0;302;11;4;0;1456;0;0;0;0;5;0;0;0;0;0;0;0;0;6;0;2443;1;0;0;0;0;0;7;0;1832;0;0;0;0;8;0;1849;0;0;0;0;9;0;948;0;0;0;0
05.01.21;16:20:00;1;422;9547;0;2;0;1788;6;0;301;7;3;0;1045;6;0;325;11;4;0;1456;0;0;37;2;5;0;0;0;0;0;0;0;0;6;0;2443;2;0;0;0;0;0;7;0;1832;0;0;0;0;8;0;1849;0;0;0;0;9;0;948;0;0;0;0
05.01.21;16:15:00;1;434;9511;0;2;0;1788;6;0;321;7;3;0;1045;6;0;372;11;4;0;1456;2;0;88;5;5;0;0;0;0;0;0;0;0;6;0;2443;2;0;0;0;0;0;7;0;1832;0;0;0;0;8;0;1849;0;0;0;0;9;0;948;0;0;84;2
05.01.21;16:10:00;1;412;9475;0;2;0;1788;6;0;344;7;3;0;1045;6;0;413;11;4;0;1456;1;0;111;5;5;0;0;0;0;0;0;0;0;6;0;2443;23;8;2;405;179;19;7;0;1832;6;0;270;10;8;0;1849;6;0;273;10;9;0;948;6;0;292;7
05.01.21;16:05:00;1;423;9441;0;2;0;1788;6;0;364;7;3;0;1045;4;0;432;11;4;0;1456;1;0;136;5;5;0;0;0;0;0;0;0;0;6;0;2443;23;6;3;409;295;19;7;0;1832;6;0;314;10;8;0;1849;6;0;317;10;9;0;948;6;0;331;7
05.01.21;16:00:00;1;500;9406;0;2;0;1788;6;0;378;7;3;0;1045;3;2;430;11;4;0;1456;1;0;160;5;5;0;0;0;0;0;0;0;0;6;0;2443;23;5;3;181;543;20;7;0;1832;6;0;355;10;8;0;1849;6;0;358;10;9;0;948;6;0;379;7
05.01.21;15:55:00;1;505;9364;0;2;0;1788;6;0;386;7;3;0;1045;6;1;446;11;4;0;1456;1;0;175;5;5;0;0;0;0;0;0;0;0;6;0;2443;23;7;6;181;557;20;7;0;1832;6;0;379;10;8;0;1849;6;0;382;10;9;0;948;6;0;387;7
05.01.21;15:50:00;1;351;9329;0;2;0;1788;6;0;398;7;3;0;1045;6;1;477;11;4;0;1456;1;0;185;5;5;0;0;0;0;0;0;0;0;6;0;2443;23;5;4;188;573;20;7;0;1832;6;0;406;10;8;0;1849;6;0;418;10;9;0;948;6;0;431;7
05.01.21;15:45:00;1;358;9300;0;2;0;1788;6;0;400;7;3;0;1045;6;2;478;11;4;0;1456;1;0;201;5;5;0;0;0;0;0;0;0;0;6;0;2443;23;5;3;292;579;20;7;0;1832;3;0;397;10;8;0;1849;4;0;413;10;9;0;948;6;0;431;7
05.01.21;15:40:00;1;411;9269;0;2;0;1788;6;0;405;7;3;1;1045;6;3;488;11;4;0;1456;1;0;203;6;5;0;0;0;0;0;0;0;0;6;0;2443;1;8;4;367;585;21;7;0;1832;6;1;426;11;8;0;1849;3;0;405;10;9;0;948;6;0;483;7
05.01.21;15:35:00;1;398;9235;0;2;0;1788;6;0;402;7;3;1;1045;6;2;485;11;4;0;1456;1;0;197;6;5;0;0;0;0;0;0;0;0;6;0;2443;8;5;3;376;583;21;7;0;1832;6;0;419;11;8;0;1849;6;0;412;10;9;0;948;4;0;456;7
05.01.21;15:30:00;1;438;9202;0;2;0;1788;6;0;401;8;3;1;1045;4;4;460;11;4;0;1456;1;0;206;6;5;0;0;0;0;0;0;0;0;6;0;2443;8;4;2;270;581;21;7;0;1832;6;0;420;11;8;0;1849;6;0;422;10;9;0;948;6;0;453;7
05.01.21;15:25:00;1;388;9165;0;2;0;1788;6;0;406;8;3;1;1045;3;3;491;11;4;0;1456;1;0;215;6;5;0;0;0;0;0;0;0;0;6;0;2443;1;4;5;476;586;22;7;0;1832;6;1;430;11;8;0;1849;6;1;432;10;9;0;948;6;0;469;7
05.01.21;15:20:00;1;403;9133;0;2;0;1788;6;0;407;8;3;2;1044;6;6;468;11;4;0;1456;1;0;217;6;5;0;0;0;0;0;0;0;0;6;0;2443;23;6;5;527;587;22;7;0;1832;6;1;436;11;8;0;1849;6;0;441;10;9;0;948;6;2;453;7
05.01.21;15:15:00;1;470;9099;0;2;0;1788;6;0;409;8;3;1;1044;6;3;493;11;4;0;1456;1;0;220;6;5;0;0;0;0;0;0;0;0;6;0;2443;1;4;4;582;588;22;7;2;1832;4;3;425;11;8;0;1849;6;1;443;11;9;0;948;6;1;482;7
05.01.21;15:10:00;1;627;9057;0;2;0;1788;6;0;411;8;3;3;1044;6;6;472;11;4;0;1456;1;0;224;7;5;0;0;0;0;0;0;0;0;6;0;2443;8;8;2;452;591;23;7;2;1832;3;3;422;11;8;0;1849;4;3;432;11;9;1;948;6;1;492;7
05.01.21;15:05:00;1;762;9005;0;2;0;1788;6;4;405;8;3;3;1044;6;6;481;11;4;0;1456;3;0;206;7;5;0;0;0;0;0;0;0;0;6;0;2443;23;5;5;446;595;23;7;1;1832;6;4;437;11;8;2;1849;3;3;439;11;9;2;948;4;3;480;7
05.01.21;15:00:00;1;769;8939;0;2;1;1788;6;5;412;8;3;1;1044;4;8;484;11;4;0;1456;3;0;219;7;5;0;0;0;0;0;0;0;0;6;46;2443;1;25;29;484;458;24;7;0;1832;6;4;475;11;8;1;1849;6;8;454;11;9;4;948;3;8;475;7
05.01.21;14:55:00;1;766;8873;0;2;2;1788;6;6;415;8;3;1;1043;3;9;494;11;4;0;1456;3;0;230;7;5;0;0;0;0;0;0;0;0;6;63;2439;4;21;23;457;430;24;7;1;1832;6;8;456;11;8;2;1849;6;4;479;11;9;2;948;6;6;504;7
05.01.21;14:50:00;1;745;8808;0;2;2;1788;6;6;414;9;3;2;1043;6;9;492;11;4;0;1456;3;0;230;7;5;0;0;0;0;0;0;0;0;6;61;2433;4;20;21;457;430;24;7;1;1831;6;4;477;12;8;3;1849;6;8;456;11;9;2;947;6;5;499;7
05.01.21;14:45:00;1;819;8746;0;2;3;1788;4;6;415;9;3;2;1043;6;10;494;11;4;0;1456;3;0;215;7;5;0;0;0;0;0;0;0;0;6;62;2428;4;34;38;457;430;24;7;2;1831;6;4;480;12;8;3;1848;6;8;458;11;9;2;947;6;6;504;7
05.01.21;14:40:00;1;720;8678;0;2;9;1787;3;21;391;9;3;0;1043;6;5;509;11;4;0;1456;3;0;216;8;5;0;0;0;0;0;0;0;0;6;64;2423;4;22;25;458;430;24;7;4;1831;3;11;461;12;8;1;1848;4;6;469;11;9;0;947;6;4;532;7
05.01.21;14:35:00;1;733;8618;0;2;4;1787;6;8;417;9;3;1;1043;6;10;499;11;4;0;1456;3;0;224;8;5;0;0;0;0;0;0;0;0;6;35;2418;4;23;22;480;521;24;7;4;1831;6;7;483;12;8;5;1848;3;11;461;12;9;2;947;6;3;533;7
05.01.21;14:30:00;1;685;8557;0;2;25;1786;6;38;397;9;3;0;1043;6;0;560;12;4;8;1456;3;8;199;8;5;0;0;0;0;0;0;0;0;6;41;2415;1;14;13;318;303;24;7;21;1830;6;34;439;12;8;14;1847;6;24;465;12;9;7;947;3;12;527;7
05.01.21;14:25:00;1;690;8500;0;2;71;1784;4;98;377;9;3;11;1043;3;21;524;12;4;36;1456;3;37;198;8;5;0;0;0;0;0;0;0;0;6;72;2412;4;40;33;254;241;25;7;46;1829;4;90;438;12;8;51;1846;4;84;420;12;9;9;946;6;17;532;7
05.01.21;14:20:00;1;723;8442;0;2;91;1778;4;119;382;9;3;7;1041;6;11;561;12;4;43;1452;3;45;198;8;5;0;0;0;0;0;0;0;0;6;81;2405;4;37;31;254;241;25;7;71;1825;4;104;446;12;8;76;1842;4;107;443;12;9;5;945;6;8;571;8
05.01.21;14:15:00;1;1069;8381;0;2;100;1771;4;127;370;10;3;17;1041;6;28;540;12;4;60;1449;3;62;198;8;5;0;0;0;0;0;0;0;0;6;88;2398;4;34;29;254;241;24;7;77;1819;4;112;451;12;8;79;1836;4;113;456;12;9;16;945;6;23;541;8
05.01.21;14:10:00;1;2747;8278;0;2;73;1762;4;98;378;10;3;6;1040;6;11;551;12;4;34;1444;3;35;198;8;5;0;0;0;0;0;0;0;0;6;69;2391;4;24;20;254;241;24;7;44;1813;4;77;360;12;8;50;1829;4;76;364;12;9;3;944;6;8;559;8
05.01.21;14:05:00;1;3732;8049;0;2;64;1756;4;90;382;10;3;11;1039;6;21;521;12;4;27;1441;3;28;198;8;5;0;0;0;0;0;0;0;0;6;68;2385;4;50;42;254;241;24;7;43;1809;4;67;357;12;8;41;1825;4;66;363;12;9;2;943;6;6;554;8
05.01.21;14:00:00;1;3134;7743;0;2;64;1751;4;89;366;10;3;5;1038;6;8;551;12;4;25;1439;3;26;198;8;5;0;0;0;0;0;0;0;0;6;63;2380;4;36;30;254;241;24;7;37;1805;4;74;358;12;8;40;1821;4;74;361;12;9;6;943;3;12;538;8
05.01.21;13:55:00;1;2809;7483;0;2;68;1745;4;94;367;10;3;6;1038;3;11;536;12;4;33;1436;3;34;198;8;5;0;0;0;0;0;0;0;0;6;65;2374;4;35;29;254;241;24;7;46;1802;4;74;361;12;8;44;1818;4;75;362;12;9;4;943;6;7;555;8
05.01.21;13:50:00;1;2574;7225;0;2;80;1740;4;105;368;10;3;6;1037;6;10;555;12;4;38;1434;3;40;198;8;5;0;0;0;0;0;0;0;0;6;74;2369;4;45;37;254;241;24;7;51;1798;4;87;438;13;8;46;1814;4;81;446;12;9;4;942;6;7;563;8
05.01.21;13:45:00;1;853;6991;0;2;83;1733;4;110;386;10;3;7;1037;6;12;544;12;4;43;1431;3;45;198;8;5;0;0;0;0;0;0;0;0;6;83;2362;4;57;47;254;241;23;7;53;1794;4;94;453;13;8;54;1810;4;95;462;12;9;4;942;6;9;561;8
05.01.21;13:40:00;1;776;6918;0;2;87;1726;4;113;378;10;3;7;1036;6;11;558;12;4;43;1427;3;45;198;8;5;0;0;0;0;0;0;0;0;6;81;2356;4;35;28;254;241;23;7;64;1789;4;94;390;13;8;54;1806;4;95;457;12;9;5;941;6;8;566;8
05.01.21;13:35:00;1;776;6855;0;2;75;1719;4;100;361;10;3;5;1036;6;11;538;12;4;32;1423;3;33;198;8;5;0;0;0;0;0;0;0;0;6;71;2349;4;40;33;254;241;23;7;47;1784;4;74;356;13;8;49;1801;4;83;408;12;9;4;941;6;7;557;8
05.01.21;13:30:00;1;770;6790;0;2;75;1713;4;101;373;10;3;0;1035;6;0;575;12;4;35;1421;3;36;198;8;5;0;0;0;0;0;0;0;0;6;73;2343;4;63;51;254;241;23;7;55;1780;4;79;361;13;8;57;1797;4;90;434;12;9;10;941;3;16;534;8
05.01.21;13:25:00;1;791;6727;0;2;81;1706;4;108;375;10;3;6;1035;4;12;553;12;4;39;1417;3;41;198;8;5;0;0;0;0;0;0;0;0;6;75;2337;4;49;41;254;241;23;7;49;1775;4;81;368;13;8;51;1792;4;86;432;12;9;4;939;6;7;559;8
05.01.21;13:20:00;1;744;6661;0;2;94;1700;4;122;376;10;3;8;1035;6;11;560;13;4;53;1414;3;55;198;8;5;0;0;0;0;0;0;0;0;6;83;2330;4;43;36;254;241;23;7;56;1771;4;85;432;13;8;54;1788;4;85;436;12;9;3;939;6;7;562;8
05.01.21;13:15:00;1;750;6599;0;2;107;1692;4;133;369;10;3;20;1034;6;32;548;13;4;58;1410;3;60;198;8;5;0;0;0;0;0;0;0;0;6;92;2323;4;56;38;254;241;23;7;70;1766;4;101;443;13;8;72;1783;4;102;428;12;9;5;939;6;10;563;9
05.01.21;13:10:00;1;2086;6535;0;2;119;1683;4;148;382;10;3;64;1032;4;102;500;13;4;69;1405;3;72;198;8;5;0;0;0;0;0;0;0;0;6;103;2315;4;59;50;254;241;23;7;90;1761;4;118;463;13;8;92;1777;4;127;435;12;9;6;938;6;10;572;9